sat.trackr.live / text

‹ back to catalog

STARLINK-35628

NORAD 66123 · 2025-237K

PAYLOAD ACTIVE UNKNOWN

§ Identity

Operator
Country
US
Launch date
2025-10-22
Launch site
AFWTR
Launch vehicle
Mass (kg)
RCS (m²)

Purposes: comms

External: N2YO · Heavens-Above · Gunter

§ Orbital elements

Epoch: 2026-09-20T03:02:40.719552Z

Period
93.85 min
Inclination
53.1592°
Eccentricity
0.0001325
Mean motion
15.34413878 rev/d
Perigee alt
461.8 km
Apogee alt
463.6 km
Semi-major
6,840.8 km
B*
4.8718e-4
RAAN
213.3682°
Arg perigee
84.6320°
Mean anomaly
275.4834°
Rev number
5,242

§ Raw data

STARLINK-356281 66123U 25237K   26263.12686018  .00016126  00000+0  48718-3 0  99942 66123  53.1592 213.3682 0001325  84.6320 275.4834 15.34413878 52424

JSON: /api/v1/satellites/66123 · /tle

For live sub-satellite position, see the globe view (requires WebGL).

§ Visibility from observer

Set your observer location to see the next 7 days of passes ≥ 10°. The values pass through the URL so the page stays shareable.

No JS? Fill the form by hand. The geolocation button needs JavaScript.